This is the latest recevied weather packets stored in our database for station/object XE2VP-WX. If no packets are shown the sender has not sent any weather packets the latest 1 day(s).
| Time | Temp. | Humidity | Pressure | Rain* | Wind** | Luminosity | Snow |
|---|---|---|---|---|---|---|---|
| 1778076401 | 25.56° C | 78% | 941.3 hPa | 0 mm | - | 330 W/m² | - |
| 1778076221 | 25.56° C | 78% | 941.3 hPa | 0 mm | - | 326 W/m² | - |
| 1778075981 | 25.56° C | 79% | 941.2 hPa | 0 mm | - | 312 W/m² | - |
| 1778075861 | 26.11° C | 78% | 941.2 hPa | 0 mm | - | 298 W/m² | - |
| 1778075801 | 26.11° C | 77% | 941.2 hPa | 0 mm | - | 295 W/m² | - |
| 1778075681 | 26.11° C | 75% | 941.2 hPa | 0 mm | - | 286 W/m² | - |
| 1778075501 | 26.11° C | 76% | 941.2 hPa | 0 mm | - | 273 W/m² | - |
| 1778074952 | 25.56° C | 78% | 941.1 hPa | 0 mm | - | 242 W/m² | - |
| 1778074830 | 25.56° C | 78% | 941.2 hPa | 0 mm | - | 229 W/m² | - |
| 1778074710 | 25.56° C | 78% | 941.2 hPa | 0 mm | - | 227 W/m² | - |
| 1778074590 | 25.56° C | 79% | 941.1 hPa | 0 mm | - | 220 W/m² | - |
| 1778074349 | 26.11° C | 76% | 941.1 hPa | 0 mm | - | 206 W/m² | - |
| 1778074168 | 26.11° C | 75% | 941 hPa | 0 mm | - | 196 W/m² | - |
| 1778074048 | 26.11° C | 75% | 941 hPa | 0 mm | - | 190 W/m² | - |
| 1778073810 | 26.11° C | 74% | 940.9 hPa | 0 mm | - | 176 W/m² | - |
| 1778073750 | 26.11° C | 73% | 940.9 hPa | 0 mm | - | 172 W/m² | - |
| 1778073210 | 26.11° C | 65% | 940.9 hPa | 0 mm | - | 143 W/m² | - |
| 1778073150 | 26.11° C | 64% | 940.9 hPa | 0 mm | - | 141 W/m² | - |
| 1778073086 | 26.11° C | 64% | 940.8 hPa | 0 mm | - | 138 W/m² | - |
| 1778072966 | 26.11° C | 63% | 940.8 hPa | 0 mm | - | 132 W/m² | - |
| 1778072905 | 26.11° C | 63% | 940.8 hPa | 0 mm | - | 128 W/m² | - |
| 1778072786 | 26.11° C | 63% | 940.7 hPa | 0 mm | - | 122 W/m² | - |
| 1778072724 | 26.11° C | 63% | 940.7 hPa | 0 mm | - | 119 W/m² | - |
| 1778072541 | 26.11° C | 63% | 940.7 hPa | 0 mm | - | 111 W/m² | - |
| 1778072295 | 25.56° C | 63% | 940.6 hPa | 0 mm | - | 99 W/m² | - |
* Rain latest hour (hover to see other rain measurements)
** Current wind speed in m/s (hover to see current wind gust speed)